Location: Baia Mare
(47.6567°N, 23.5850°E)
Time: 03:24:37
(UTC+03:00)

ISS - Pass Details

Date: 18 July 2018
Orbit: 402 x 408 km, 51.6° (Epoch: 17 July)

Event Time Altitude Azimuth Distance (km) Brightness Sun altitude
Exits shadow 00:17:37 19° 75° (ENE) 1,048 -1.8 -19.3°
Drops below altitude 10° 00:18:41 10° 71° (ENE) 1,468 -1.0 -19.3°
Sets 00:20:47 0° 67° (ENE) 2,332 0.1 -19.4°
